Вернуться в каталог

ARVAKER-2

АктивенНаукаSSO
NORAD 64567·PAYLOAD·🇳🇴 Norway

Запущен Jun 23, 2025 с Vandenberg Space Force Base

Loading…

Ближайшие Пролёты (ближайшие 24 часа)

TLE

СвежийSource: Space-Track

Эпоха: Sep 14, 2026, 14:20 UTC

1 64567U 25135AR  26257.59753688  .00001860  00000-0  18054-3 0  9993
2 64567  97.7810  10.8130 0002192  56.3990 303.7438 14.93851306 67226

Отслеживайте ARVAKER-2 в реальном времени с AllMySat

Download on the App Store